STARLINK-30517, 57995

Orbit data source: Space-Track

STARLINK-30517, 57995 is a payload satellite owned by SpaceX/Seattle (US) in LEO that was launched on Thu, 05 Oct 2023 UTC via an FALCON 9 launch vehicle from the Air Force Eastern Test Range (AFETR). Payload-class satellites include a variety of spacecraft equipped with specific instruments for various scientific and technological missions. These include communications satellites like Starlink; space stations such as the ISS; scientific satellites like the Hubble; Earth observation satellites from companies like Planet Labs, Umbra, and HawkEye 360; GPS; miniature CubeSats for education and research; and military/defense satellites.

Loading next visibility...
Identifier
57995, 2023-153E
Orbit
LEO
Country
Flag of USUS
Related business
Manufacturer
SpaceX/Seattle
Mission
Operational Commercial Communications
Bus & Motor
STARLINK V2M, Unknown motor
Mass
730 kg wet, ~700 kg dry
Launch date (UTC)
2023-10-05 (3 years ago)
Launch vehicle
FALCON 9
Launch site
Air Force Eastern Test Range (AFETR)
Object type
Payload
Rocket body
Debris
Shape & HBR
Box + 2 Pan, 17.7 m
Radar Cross Section
33.884 m², Large (>1 m²)

Expand to show TLE details & history
Last TLE update: 2 days ago

TLE from 2 days ago
0 STARLINK-30517
1 57995U 23153E   26171.15158203  .00000594  00000-0  31096-4 0  9992
2 57995  43.0034 208.6568 0000958 235.9916 124.0845 15.27586804150560
Epoch: 2026-06-20T03:38Z
TLE epoch observation values (Epoch: 2026-06-20T03:38:16.687Z)
Latitude
Longitude
-114.28305°
Altitude
483.173 km
Speed
7.625 km/s
True Right ascension
13h 54m 37s
True Declination
0° 00' 00"
Sunlit
Object was in full shadow at epoch
Visualization orbit readout
Latitude
Unknown
Longitude
Unknown
Altitude
Unknown
Speed
Unknown
Apparent Right ascension
Unknown
Apparent Declination
Unknown
Sunlit
N/A
Visualization observer readout
Local Sidereal Time
21:29:53
Azimuth
Unknown
Elevation
Unknown
Doppler factor
Unknown
Orbital elements
Apogee altitude
485.631 km
Perigee altitude
484.316 km
Semi-major axis
6,863.11 km
Eccentricity
0.0001
Inclination
43.0034°
RAAN
208.6568°
Arg. of periapsis
235.9916°
True anomaly
124.09359°
Mean anomaly
124.0845°
Eccentric anomaly
124.08905°
Mean motion
3.81735 °/min
Orbital period
94.31 mins
BSTAR
0.000031096
Loading maneuver chart data...
Computing Atmospheric mass density...
Loading historical data...
Loading historical data...
Loading historical data...
Loading historical data...
Loading historical data...
Loading historical data...
Loading historical data...

Documentation

Showing up to 5 results
|